Погода в Новопавловке

Украина / Николаевская область     47°39′41″N   30°33′12″E
темп.,
°C
ветер,
м/с
пор.,
м/с
влажн.,
%
обл.,
%
осадки,
мм/ч
давл.,
гПа
погр.,
м
22 октября, пт
пт2200:00+11ююз613725 0.0 1011327
03:00+10ююз47785 0.0 1011118
06:00+10зюз336258 0.0 101234
09:00+13зюз365431 0.0 1013161
12:00+19з354256 0.0 1014901
15:00+21зюз463970 0.0 10132055
18:00+17зсз2251100 0.0 101312
21:00+15сз1148100 0.0 101511
23 октября, сб
сб2300:00+14зюз3350100 0.0 101519
03:00+12зсз3755100 0.0 1015143
06:00+12сз3855100 0.0 1016211
09:00+12сз4758100 0.0 1017352
12:00+12сз3556100 0.0 1019577
15:00+13зсз58396 0.0 10191350
18:00+11сз47391 0.0 1020105
21:00+8сз464245 0.0 1022102
24 октября, вс
вс2400:00+7зсз484799 0.0 1023141
03:00+6сз485375 0.0 1024160
06:00+4зсз410624 0.0 1024205
09:00+5сз510675 0.0 1026396
12:00+9сз68535 0.0 10271225
15:00+10сз894141 0.0 10261741
18:00+7ссз79615 0.0 10281060
21:00+7ссз81250100 0.0 10301538
25 октября, пн
пн2500:00+6ссз695093 0.0 10311414
03:00+3ссз356074 0.0 1031113
06:00+3сз356343 0.0 1032104
09:00+4с36605 0.0 1034295
12:00+7ссв44420 0.0 10341067
15:00+9ссв33350 0.0 10331178
18:00+6св22410 0.0 103316
21:00+4в33464 0.0 103429
26 октября, вт
вт2600:00+3вюв33535 0.0 103432
03:00+2юв33580 0.0 103440
06:00+1юв34585 0.0 103445
09:00+3юв36495 0.0 1033178
12:00+8ююв56345 0.0 1032752
15:00+10ююв45295 0.0 10301032
18:00+7ююв454148 0.0 102969
21:00+4ююв475086 0.0 1029110